TimeCDT,TemperatureF,Dew PointF,Humidity,Sea Level PressureIn,VisibilityMPH,Wind Direction,Wind SpeedMPH,Gust SpeedMPH,PrecipitationIn,Events,Conditions,WindDirDegrees,DateUTC
12:53 AM,55.9,34.0,44,30.04,10.0,Variable,5.8,-,N/A,,Clear,0,2014-04-17 05:53:00
1:53 AM,51.1,34.0,52,30.09,10.0,Calm,Calm,-,N/A,,Clear,0,2014-04-17 06:53:00
2:53 AM,51.1,34.0,52,30.09,10.0,East,4.6,-,N/A,,Clear,80,2014-04-17 07:53:00
3:53 AM,48.0,35.1,61,30.10,10.0,North,9.2,-,N/A,,Clear,10,2014-04-17 08:53:00
4:53 AM,46.9,36.0,66,30.11,10.0,NNE,9.2,-,N/A,,Clear,30,2014-04-17 09:53:00
5:53 AM,46.9,35.1,63,30.13,10.0,NE,12.7,-,N/A,,Clear,40,2014-04-17 10:53:00
6:53 AM,45.0,34.0,65,30.16,10.0,NE,11.5,-,N/A,,Clear,40,2014-04-17 11:53:00
7:53 AM,44.1,32.0,63,30.20,10.0,NE,17.3,-,N/A,,Clear,40,2014-04-17 12:53:00
8:53 AM,45.0,32.0,60,30.22,10.0,NE,17.3,-,N/A,,Clear,40,2014-04-17 13:53:00
9:53 AM,46.9,32.0,56,30.24,10.0,NE,16.1,-,N/A,,Clear,40,2014-04-17 14:53:00
10:53 AM,50.0,33.1,52,30.26,10.0,NE,15.0,-,N/A,,Clear,40,2014-04-17 15:53:00
11:53 AM,51.8,33.8,50,30.28,10.0,NNE,13.8,25.3,N/A,,Mostly Cloudy,30,2014-04-17 16:53:00
12:53 PM,54.0,34.0,47,30.26,10.0,NNE,13.8,-,N/A,,Overcast,30,2014-04-17 17:53:00
1:53 PM,53.1,33.1,47,30.25,10.0,NNE,12.7,-,N/A,,Overcast,20,2014-04-17 18:53:00
2:53 PM,53.1,33.1,47,30.25,10.0,NE,10.4,-,N/A,,Overcast,40,2014-04-17 19:53:00
3:53 PM,52.0,36.0,54,30.25,9.0,NNE,8.1,-,0.00,Rain,Light Rain,20,2014-04-17 20:53:00
4:53 PM,53.1,37.0,55,30.24,10.0,NE,6.9,-,0.00,,Mostly Cloudy,50,2014-04-17 21:53:00
5:53 PM,53.1,39.0,59,30.25,10.0,East,6.9,-,0.00,Rain,Light Rain,90,2014-04-17 22:53:00
6:53 PM,52.0,37.9,59,30.25,6.0,ENE,8.1,-,0.00,,Haze,70,2014-04-17 23:53:00
7:53 PM,48.9,36.0,61,30.24,8.0,NE,5.8,-,N/A,,Clear,50,2014-04-18 00:53:00
8:53 PM,45.0,35.1,68,30.26,8.0,Calm,Calm,-,N/A,,Clear,0,2014-04-18 01:53:00
9:53 PM,39.9,34.0,79,30.27,6.0,NNE,3.5,-,N/A,,Haze,20,2014-04-18 02:53:00
10:53 PM,39.0,33.1,79,30.28,6.0,Calm,Calm,-,N/A,,Haze,0,2014-04-18 03:53:00
11:53 PM,37.9,32.0,79,30.29,6.0,NE,3.5,-,N/A,,Haze,40,2014-04-18 04:53:00